User: anonymous   Login
Location: Roanoke
(37.2710°N, 79.9420°W)
Time: 01:58:04
(UTC-04:00)
Language:

Cosmos 1441 Rocket - Orbit

View from above orbital plane
View from above orbital plane
View from above satellite
View from above satellite

Ground track
Ground track

The orbit data is extracted from the following two-line orbital elements,

1 13819U 83010B   15243.20618929  .00000909  00000-0  48764-4 0  9997
2 13819 081.1165 204.6457 0034126 005.7439 354.4171 15.13462903774443
Epoch (UTC): 31 August 2015 04:56:54
Eccentricity: 0.0034126
inclination: 81.1165°
perigee height: 502 km
apogee height: 549 km
right ascension of ascending node: 204.6457°
argument of perigee: 5.7439°
revolutions per day: 15.13462903
mean anomaly at epoch: 354.4171°
orbit number at epoch: 77444

The dashed part of the orbit path shows where the satellite is in the earth's shadow,  

DLR